Regional Weather Roundup
Issued by NWS

Home | Current Version | Previous Version | Graphics & Text | Print | Product List | Glossary On
Versions: 1 2 3 4 5 6 7 8 9 10 11 12 13 14 15 16 17 18 19 20 21 22 23 24 25 26 27 28 29 30 31 32 33 34 35 36 37 38 39 40 41 42 43 44 45 46 47 48 49 50
840
ASUS43 KMKX 130221
RWRWI

WISCONSIN REGIONAL WEATHER ROUNDUP
NATIONAL WEATHER SERVICE MILWAUKEE/SULLIVAN WI
800 PM CST FRI FEB 12 2016

NOTE: "FAIR" INDICATES FEW OR NO CLOUDS BELOW 12,000 FEET WITH NO
SIGNIFICANT WEATHER AND/OR OBSTRUCTIONS TO VISIBILITY.

WIZ001-002-006>008-014>016-023>028-130300-
NORTHWEST WISCONSIN

CITY           SKY/WX    TMP DP  RH WIND       PRES   REMARKS
SUPERIOR ARPT  CLEAR      0 -16  47 NW8       30.54S WCI -14
ASHLAND        PTCLDY     1 -12  54 NW8       30.47R WCI -13
HAYWARD        CLEAR     -1 -18  44 VRB5      30.45R WCI -11
SIREN          CLEAR     -1 -17  47 NW6       30.52S WCI -13
CUMBERLAND     CLEAR      0 -17  46 NW12      30.47R WCI -18
RICE LAKE      CLEAR      0 -17  46 W6        30.49R WCI -12
CHETEK         CLEAR      0 -15  49 MISG      30.48R
LADYSMITH      CLEAR     -1 -17  48 NW6       30.45R WCI -13
EAU CLAIRE     CLEAR      2 -16  42 NW5       30.49R WCI  -8
MENOMONIE      CLEAR      3 -15  43 W7        30.52R WCI  -9
NEW RICHMOND   CLEAR      2 -15  46 NW12      30.52R WCI -15
OSCEOLA        CLEAR      3 -13  46 NW8       30.57R WCI -10
$$

WIZ003>005-009-010-017-018-130300-
NORTH CENTRAL WISCONSIN

CITY           SKY/WX    TMP DP  RH WIND       PRES   REMARKS
MANITOWISH WTR CLOUDY    -4  -9  77 W9        30.32R HAZE    WCI -20
ARBOR VITAE    CLEAR     -1 -10  68 NW10G18   30.31S WCI -18
WOODRUFF       CLEAR     -1 -10  68 NW10G18   30.31S WCI -18
RHINELANDER    CLEAR     -4 -13  65 W9        30.30S WCI -20
EAGLE RIVER    CLEAR     -4 -11  72 NW8       30.28S WCI -19
LAND O LAKES   LGT SNOW  -1  -6  81 W6        30.28R WCI -13
PHILLIPS       CLEAR     -5 -15  60 W5        30.37R WCI -16
TOMAHAWK       CLEAR     -5 -14  64 W8        30.36R WCI -20
MEDFORD        CLEAR     -2 -15  53 NW13      30.36S WCI -20
MERRILL        CLEAR     -2 -14  56 NW3       30.37S
$$

WIZ029-030-035-036-043>047-130300-
CENTRAL WISCONSIN

CITY           SKY/WX    TMP DP  RH WIND       PRES   REMARKS
WAUSAU         CLEAR      1 -13  51 NW8       30.37R WCI -13
MOSINEE        CLEAR      0 -13  55 NW8       30.39R WCI -15
MARSHFIELD     CLEAR      0 -16  46 NW13      30.39R WCI -18
STEVENS POINT  CLEAR      0 -15  49 NW3       30.41R
WAUPACA        CLEAR      4 -12  46 NW9       30.42R WCI -10
WAUTOMA        CLEAR      4 -14  43 N10G18    30.43R WCI -11
WISC RAPIDS    CLEAR      2 -15  45 N12       30.43R WCI -15
CAMP DOUGLAS   CLEAR      4 -13  46 NW12      30.45R WCI -13
$$

WIZ011>013-019>022-031-037>040-048>050-130300-
NORTHEAST WISCONSIN

CITY           SKY/WX    TMP DP  RH WIND       PRES   REMARKS
ANTIGO         CLEAR     -4 -14  63 NW12      30.32S WCI -22
SHAWANO        CLEAR      3 -13  46 NW10      30.40R WCI -12
OCONTO         CLEAR      1 -11  55 NW7       30.38R WCI -11
STURGEON BAY   CLEAR      1 -11  55 NW9       30.37R WCI -14
GREEN BAY      CLEAR      2 -12  52 NW13      30.39R WCI -15
MANITOWOC      CLEAR      4 -10  52 NW15      30.38R WCI -14
APPLETON       PTCLDY     1 -15  46 NW13G25   30.37R WCI -16
CLINTONVILLE   CLEAR      3 -15  43 NW12G17   30.41R WCI -13
OSHKOSH        CLEAR      4 -11  50 NW14      30.40R WCI -14
$$

WIZ032>034-041-042-053>061-130300-
SOUTHWEST WISCONSIN

CITY           SKY/WX    TMP DP  RH WIND       PRES   REMARKS
LA CROSSE      CLEAR      5 -10  50 NW10      30.51R WCI -10
SPARTA         CLEAR      5 -12  46 NW8       30.48S WCI  -8
VIROQUA        CLEAR      4 -12  47 N13       30.42S WCI -13
BOSCOBEL       CLEAR      9 -10  42 NW8       30.49R WCI  -3
PRAIRIE DU CHI CLEAR      8  -9  45 NW12      30.51R WCI  -7
PLATTEVILLE    CLEAR      9  -6  48 NW16G23   30.42R WCI  -8
$$

WIZ056-057-062-063-064-067-068-130300-
SOUTH CENTRAL WISCONSIN

CITY           SKY/WX    TMP DP  RH WIND       PRES   REMARKS
REEDSBURG      CLEAR      5 -11  46 NW9G17    30.44R WCI  -9
BARABOO/DELLS  CLEAR      5 -13  43 NW12G20   30.42R WCI -11
LONE ROCK      CLEAR      8 -10  43 NW16G23   30.47R WCI -10
MINERAL POINT  CLEAR     10  -9  40 NW16G24   30.41R WCI  -7
MADISON        CLEAR      7 -10  46 NW12G17   30.41R WCI  -8
MIDDLETON      CLEAR      8  -8  47 NW10G16   30.42R WCI  -6
WATERTOWN      CLEAR      7  -8  50 NW12G20   30.39R WCI  -9
MONROE         CLEAR     10  -8  44 NW12G22   30.38R WCI  -4
JANESVILLE     CLEAR     12  -8  40 N15G28    30.39R WCI  -4
$$

WIZ051-052-058>065-066-070>072-130300-
SOUTHEAST WISCONSIN

CITY           SKY/WX    TMP DP  RH WIND       PRES   REMARKS
MILWAUKEE      PTCLDY    10  -9  42 NW17G26   30.36R WCI  -8
WAUKESHA       CLEAR      7  -9  47 NW15G23   30.36R WCI -11
MILWAUKEE/TIMM CLEAR      9 -11  40 NW15G26   30.37R WCI  -8
RACINE         CLEAR     10  -9  42 NW10G26   30.37R WCI  -4
BURLINGTON     CLEAR      7  -9  46 NW15G23   30.37R WCI -10
KENOSHA        CLEAR     10  -7  46 NW16G28   30.36R WCI  -7
FOND DU LAC    CLEAR      5 -10  50 N15G25    30.40R WCI -13
SHEBOYGAN      CLEAR      5 -11  47 NW18      30.37R WCI -15
WEST BEND      CLEAR      5 -11  47 N15G21    30.36R WCI -13
JUNEAU         CLEAR      5  -9  51 NW10G18   30.40R WCI -10
$$

LSZ147-162-130300-
LAKE SUPERIOR

STATION/POSITION TIME  TEMP    WIND        PRES    WAVE
                       AIR SEA DIR/SP/G            HT/PER
                 (UTC) (F)     (DEG/KT/KT) (MB)    (FT/S)
DEVILS ISLAND    0200    3     300/ 19/ 23 1033.9R
SAXON HARBOR     0200    5                 1031.2R
$$

LMZ867-665-643>646-130300-
LAKE MICHIGAN

STATION/POSITION TIME  TEMP    WIND        PRES    WAVE
                       AIR SEA DIR/SP/G            HT/PER
                 (UTC) (F)     (DEG/KT/KT) (MB)    (FT/S)
CHAMBERS ISLAND  0100    2     300/ 10/ 17 1027.1R
SISTER BAY       0105    2     330/ 25/ 31   N/A
ALGOMA LAKESHORE 0011          330/ 21/ 27   N/A
KEWAUNEE LAKESHO 0100    4                 1026.8R
SHEBOYGAN LAKESH 0200    6     320/ 14/ 18 1030.8R
PORT WASHINGTON  0100   10     330/  8/ 19 1028.4R
MILWAUKEE LAKESH 0210    9     330/ 17/ 19   N/A
KENOSHA   LAKESH 0200   11     320/ 18/ 25 1027.8R
$$

TC  - TEMPERATURE IN CELSIUS
VSB - VISIBILITY IN STATUTE MILES
WCI - WIND CHILL INDEX
HX  - HEAT INDEX





USA.gov is the U.S. government's official web portal to all federal, state and local government web resources and services.